FDX1889 KOAK-KSAN

Flight info

Callsign FDX1889
Flight time 1h 5m
Altitude 33000
Route KATFH3 YYUNG LAX COMIX2
Aircraft MD11/H-VGDW/C

Departure

Time 2026-04-20 22:42
Airport San Francisco Bay Oakland International Airport (KOAK)

Arrival

Time 2026-04-20 23:47
Airport San Diego International Airport (KSAN)
Time Latitude Longitude Altitude Speed Heading
2026-04-20 22:14 37.71792 -122.21915 16 ft 0 kts 312°
2026-04-20 22:31 37.71790 -122.21912 17 ft 2 kts 310°
2026-04-20 22:31 37.71782 -122.21897 17 ft 2 kts 294°
2026-04-20 22:31 37.71777 -122.21880 17 ft 2 kts 284°
2026-04-20 22:32 37.71775 -122.21861 17 ft 2 kts 273°
2026-04-20 22:32 37.71775 -122.21842 17 ft 2 kts 262°
2026-04-20 22:32 37.71778 -122.21828 17 ft 0 kts 252°
2026-04-20 22:32 37.71778 -122.21825 17 ft 0 kts 252°
2026-04-20 22:34 37.71778 -122.21827 17 ft 0 kts 249°
2026-04-20 22:35 37.71766 -122.21848 17 ft 8 kts 230°
2026-04-20 22:35 37.71701 -122.21939 17 ft 15 kts 225°
2026-04-20 22:35 37.71634 -122.22030 17 ft 13 kts 226°
2026-04-20 22:35 37.71556 -122.22022 17 ft 12 kts 137°
2026-04-20 22:36 37.71494 -122.21979 17 ft 8 kts 200°
2026-04-20 22:36 37.71444 -122.22031 17 ft 9 kts 229°
2026-04-20 22:36 37.71398 -122.22099 17 ft 10 kts 229°
2026-04-20 22:36 37.71346 -122.22173 17 ft 11 kts 228°
2026-04-20 22:37 37.71287 -122.22246 17 ft 12 kts 220°
2026-04-20 22:37 37.71217 -122.22319 17 ft 13 kts 219°
2026-04-20 22:37 37.71143 -122.22396 17 ft 12 kts 219°
2026-04-20 22:37 37.71102 -122.22446 17 ft 6 kts 255°
2026-04-20 22:38 37.71130 -122.22519 17 ft 13 kts 309°
2026-04-20 22:38 37.71199 -122.22623 17 ft 16 kts 310°
2026-04-20 22:38 37.71276 -122.22739 16 ft 17 kts 310°
2026-04-20 22:38 37.71357 -122.22862 16 ft 18 kts 309°
2026-04-20 22:39 37.71444 -122.22992 16 ft 19 kts 310°
2026-04-20 22:39 37.71533 -122.23126 16 ft 20 kts 309°
2026-04-20 22:39 37.71628 -122.23268 16 ft 21 kts 310°
2026-04-20 22:39 37.71725 -122.23415 16 ft 22 kts 308°
2026-04-20 22:40 37.71805 -122.23579 16 ft 22 kts 300°
2026-04-20 22:40 37.71886 -122.23749 16 ft 20 kts 301°
2026-04-20 22:40 37.71965 -122.23881 16 ft 18 kts 310°
2026-04-20 22:40 37.72051 -122.24009 16 ft 18 kts 310°
2026-04-20 22:41 37.72085 -122.24096 16 ft 8 kts 253°
2026-04-20 22:41 37.72035 -122.24167 16 ft 12 kts 219°
2026-04-20 22:41 37.71995 -122.24189 16 ft 5 kts 154°
2026-04-20 22:41 37.71965 -122.24151 16 ft 9 kts 131°
2026-04-20 22:42 37.71810 -122.23919 16 ft 70 kts 130°
2026-04-20 22:42 37.71332 -122.23202 17 ft 140 kts 130°
2026-04-20 22:42 37.70587 -122.22083 53 ft 187 kts 132°
2026-04-20 22:42 37.69764 -122.20852 720 ft 180 kts 139°
2026-04-20 22:43 37.68880 -122.19765 1381 ft 178 kts 143°
2026-04-20 22:43 37.67996 -122.18744 2096 ft 176 kts 142°
2026-04-20 22:43 37.67012 -122.17638 2302 ft 206 kts 143°
2026-04-20 22:43 37.65843 -122.16389 2730 ft 229 kts 143°
2026-04-20 22:44 37.64578 -122.15024 2923 ft 245 kts 142°
2026-04-20 22:44 37.63311 -122.13625 2934 ft 246 kts 142°
2026-04-20 22:44 37.62007 -122.12177 2947 ft 247 kts 142°
2026-04-20 22:44 37.60700 -122.10770 2948 ft 246 kts 146°
2026-04-20 22:45 37.59261 -122.09677 3166 ft 241 kts 159°
2026-04-20 22:45 37.57666 -122.09011 3818 ft 243 kts 166°
2026-04-20 22:45 37.56039 -122.08480 3912 ft 243 kts 166°
2026-04-20 22:45 37.54402 -122.07938 3983 ft 247 kts 166°
2026-04-20 22:46 37.52784 -122.07387 5104 ft 243 kts 166°
2026-04-20 22:46 37.51171 -122.06827 6137 ft 245 kts 166°
2026-04-20 22:46 37.49527 -122.06255 7155 ft 248 kts 165°
2026-04-20 22:46 37.47886 -122.05675 8168 ft 250 kts 166°
2026-04-20 22:47 37.46225 -122.05085 9180 ft 252 kts 166°
2026-04-20 22:47 37.44543 -122.04490 10147 ft 254 kts 167°
2026-04-20 22:47 37.42783 -122.03882 10542 ft 279 kts 167°
2026-04-20 22:47 37.40816 -122.03200 10743 ft 309 kts 166°
2026-04-20 22:48 37.38639 -122.02421 10866 ft 341 kts 165°
2026-04-20 22:48 37.36330 -122.01356 11139 ft 366 kts 159°
2026-04-20 22:48 37.34002 -121.99883 11862 ft 379 kts 152°
2026-04-20 22:48 37.31792 -121.98032 12682 ft 388 kts 148°
2026-04-20 22:49 37.29577 -121.96070 13545 ft 393 kts 148°
2026-04-20 22:49 37.27350 -121.94104 14344 ft 399 kts 149°
2026-04-20 22:49 37.25063 -121.92092 15144 ft 404 kts 149°
2026-04-20 22:49 37.22746 -121.90054 15947 ft 409 kts 149°
2026-04-20 22:50 37.20433 -121.88012 16707 ft 413 kts 150°
2026-04-20 22:50 37.18081 -121.85955 17441 ft 418 kts 150°
2026-04-20 22:50 37.15664 -121.83840 18110 ft 424 kts 150°
2026-04-20 22:50 37.13260 -121.81737 18785 ft 428 kts 150°
2026-04-20 22:51 37.10786 -121.79569 19469 ft 433 kts 150°
2026-04-20 22:51 37.08345 -121.77429 20093 ft 437 kts 151°
2026-04-20 22:51 37.05827 -121.75208 20746 ft 441 kts 150°
2026-04-20 22:51 37.03329 -121.73004 21352 ft 446 kts 151°
2026-04-20 22:52 37.00779 -121.70770 21950 ft 450 kts 151°
2026-04-20 22:52 36.98198 -121.68512 22529 ft 454 kts 151°
2026-04-20 22:52 36.95622 -121.66257 23123 ft 457 kts 151°
2026-04-20 22:52 36.92998 -121.63959 23759 ft 460 kts 151°
2026-04-20 22:53 36.90371 -121.61653 24300 ft 464 kts 150°
2026-04-20 22:53 36.87712 -121.59318 24825 ft 469 kts 150°
2026-04-20 22:53 36.85057 -121.56990 25391 ft 472 kts 150°
2026-04-20 22:53 36.82333 -121.54595 25933 ft 475 kts 150°
2026-04-20 22:54 36.79637 -121.52223 26588 ft 476 kts 150°
2026-04-20 22:54 36.76955 -121.49864 27416 ft 472 kts 150°
2026-04-20 22:54 36.74286 -121.47516 28146 ft 471 kts 150°
2026-04-20 22:54 36.71641 -121.45191 28878 ft 469 kts 150°
2026-04-20 22:55 36.68960 -121.42833 29594 ft 468 kts 149°
2026-04-20 22:55 36.66318 -121.40506 30308 ft 466 kts 150°
2026-04-20 22:55 36.63694 -121.38198 30914 ft 465 kts 150°
2026-04-20 22:55 36.61064 -121.35912 31515 ft 464 kts 150°
2026-04-20 22:56 36.58414 -121.33626 32085 ft 462 kts 150°
2026-04-20 22:56 36.55718 -121.31301 32644 ft 461 kts 150°
2026-04-20 22:56 36.53054 -121.29001 32914 ft 465 kts 150°
2026-04-20 22:56 36.50404 -121.26709 32933 ft 465 kts 150°
2026-04-20 22:57 36.45061 -121.22086 32952 ft 462 kts 150°
2026-04-20 22:57 36.39815 -121.17512 32957 ft 462 kts 149°
2026-04-20 22:58 36.34723 -121.12580 32963 ft 466 kts 145°
2026-04-20 22:58 36.29705 -121.07425 32953 ft 468 kts 145°
2026-04-20 22:59 36.24699 -121.02329 32951 ft 468 kts 145°
2026-04-20 22:59 36.19629 -120.97173 32955 ft 469 kts 145°
2026-04-20 23:00 36.14601 -120.92062 32965 ft 470 kts 145°
2026-04-20 23:00 36.09526 -120.86899 32965 ft 470 kts 145°
2026-04-20 23:01 36.04482 -120.81768 32967 ft 470 kts 145°
2026-04-20 23:01 35.99450 -120.76645 32966 ft 470 kts 145°
2026-04-20 23:02 35.94371 -120.71475 32972 ft 471 kts 145°
2026-04-20 23:02 35.89289 -120.66292 32977 ft 471 kts 145°
2026-04-20 23:03 35.84227 -120.61131 32983 ft 472 kts 145°
2026-04-20 23:03 35.79196 -120.56000 32984 ft 472 kts 145°
2026-04-20 23:04 35.74080 -120.50808 32989 ft 472 kts 145°
2026-04-20 23:04 35.69036 -120.45618 32979 ft 474 kts 143°
2026-04-20 23:05 35.64213 -120.40039 32978 ft 476 kts 141°
2026-04-20 23:05 35.59431 -120.34409 32966 ft 476 kts 141°
2026-04-20 23:06 35.54635 -120.28766 32964 ft 476 kts 141°
2026-04-20 23:06 35.49840 -120.23128 32963 ft 477 kts 141°
2026-04-20 23:07 35.45048 -120.17510 32965 ft 477 kts 141°
2026-04-20 23:07 35.40253 -120.11900 32973 ft 477 kts 142°
2026-04-20 23:08 35.35460 -120.06268 32984 ft 478 kts 141°
2026-04-20 23:08 35.30656 -120.00613 32994 ft 478 kts 141°
2026-04-20 23:09 35.25877 -119.95000 33009 ft 478 kts 141°
2026-04-20 23:09 35.21048 -119.89325 33006 ft 478 kts 141°
2026-04-20 23:10 35.16276 -119.83709 33013 ft 479 kts 141°
2026-04-20 23:10 35.11465 -119.78046 33022 ft 480 kts 141°
2026-04-20 23:11 35.06665 -119.72394 33018 ft 480 kts 141°
2026-04-20 23:11 35.01842 -119.66790 33023 ft 480 kts 142°
2026-04-20 23:12 34.96944 -119.61200 33011 ft 481 kts 142°
2026-04-20 23:12 34.92048 -119.55594 33028 ft 481 kts 142°
2026-04-20 23:13 34.87178 -119.50007 33028 ft 481 kts 141°
2026-04-20 23:13 34.82279 -119.44383 33046 ft 481 kts 141°
2026-04-20 23:14 34.77420 -119.38799 33057 ft 482 kts 141°
2026-04-20 23:14 34.72523 -119.33169 33052 ft 482 kts 142°
2026-04-20 23:15 34.67651 -119.27560 33059 ft 482 kts 142°
2026-04-20 23:15 34.62788 -119.21976 33060 ft 481 kts 142°
2026-04-20 23:16 34.57943 -119.16409 33062 ft 482 kts 141°
2026-04-20 23:16 34.53053 -119.10770 33061 ft 483 kts 141°
2026-04-20 23:17 34.48199 -119.05175 33041 ft 484 kts 141°
2026-04-20 23:17 34.43317 -118.99562 33028 ft 484 kts 142°
2026-04-20 23:18 34.38367 -118.94016 33025 ft 484 kts 142°
2026-04-20 23:18 34.33452 -118.88494 33004 ft 484 kts 142°
2026-04-20 23:19 34.28530 -118.82951 33013 ft 484 kts 142°
2026-04-20 23:19 34.23600 -118.77393 33003 ft 485 kts 141°
2026-04-20 23:20 34.18645 -118.71806 33008 ft 485 kts 141°
2026-04-20 23:20 34.13745 -118.66280 33016 ft 485 kts 141°
2026-04-20 23:21 34.08803 -118.60703 33011 ft 487 kts 141°
2026-04-20 23:21 34.03845 -118.55106 33003 ft 487 kts 141°
2026-04-20 23:22 33.98920 -118.49545 33007 ft 487 kts 141°
2026-04-20 23:22 33.93972 -118.43954 33015 ft 488 kts 141°
2026-04-20 23:23 33.89265 -118.38044 33017 ft 492 kts 136°
2026-04-20 23:23 33.84643 -118.32009 33010 ft 491 kts 137°
2026-04-20 23:24 33.80045 -118.26040 33012 ft 490 kts 137°
2026-04-20 23:24 33.75407 -118.20019 33000 ft 491 kts 137°
2026-04-20 23:25 33.70792 -118.13970 32288 ft 494 kts 136°
2026-04-20 23:25 33.68491 -118.10955 31529 ft 494 kts 136°
2026-04-20 23:25 33.66190 -118.07940 30757 ft 494 kts 136°
2026-04-20 23:26 33.63847 -118.04868 29962 ft 495 kts 135°
2026-04-20 23:26 33.61548 -118.01843 29161 ft 497 kts 135°
2026-04-20 23:26 33.59209 -117.98766 28341 ft 500 kts 135°
2026-04-20 23:26 33.56877 -117.95702 27511 ft 502 kts 135°
2026-04-20 23:27 33.54525 -117.92650 26676 ft 502 kts 137°
2026-04-20 23:27 33.52043 -117.89721 25861 ft 503 kts 139°
2026-04-20 23:27 33.49495 -117.86807 25104 ft 502 kts 139°
2026-04-20 23:27 33.47015 -117.83961 24334 ft 495 kts 139°
2026-04-20 23:28 33.44553 -117.81116 23504 ft 482 kts 139°
2026-04-20 23:28 33.42151 -117.78410 22818 ft 477 kts 141°
2026-04-20 23:28 33.39681 -117.75808 22282 ft 469 kts 141°
2026-04-20 23:28 33.37249 -117.73257 21320 ft 467 kts 141°
2026-04-20 23:29 33.34807 -117.70676 20485 ft 466 kts 141°
2026-04-20 23:29 33.32400 -117.68122 19818 ft 464 kts 141°
2026-04-20 23:29 33.30035 -117.65602 19171 ft 456 kts 141°
2026-04-20 23:29 33.27693 -117.63103 18286 ft 453 kts 141°
2026-04-20 23:30 33.25344 -117.60589 17517 ft 448 kts 140°
2026-04-20 23:30 33.23048 -117.58142 16871 ft 442 kts 141°
2026-04-20 23:30 33.20748 -117.55721 16070 ft 440 kts 141°
2026-04-20 23:30 33.18491 -117.53352 15380 ft 434 kts 141°
2026-04-20 23:31 33.16222 -117.50967 14658 ft 431 kts 140°
2026-04-20 23:31 33.13980 -117.48627 13997 ft 429 kts 142°
2026-04-20 23:31 33.11637 -117.46491 13357 ft 424 kts 146°
2026-04-20 23:31 33.09227 -117.44514 12734 ft 420 kts 147°
2026-04-20 23:32 33.06837 -117.42567 12431 ft 414 kts 147°
2026-04-20 23:32 33.04457 -117.40620 11862 ft 410 kts 147°
2026-04-20 23:32 33.02181 -117.38734 11594 ft 393 kts 146°
2026-04-20 23:32 32.99999 -117.36900 11325 ft 372 kts 146°
2026-04-20 23:33 32.97954 -117.35180 11109 ft 343 kts 146°
2026-04-20 23:33 32.96108 -117.33611 11071 ft 313 kts 146°
2026-04-20 23:33 32.94593 -117.31883 11051 ft 293 kts 124°
2026-04-20 23:33 32.93700 -117.29710 11015 ft 290 kts 114°
2026-04-20 23:34 32.93033 -117.27488 10676 ft 286 kts 111°
2026-04-20 23:34 32.92404 -117.25266 10405 ft 278 kts 111°
2026-04-20 23:34 32.91804 -117.23122 10030 ft 271 kts 111°
2026-04-20 23:34 32.91213 -117.21026 9648 ft 267 kts 111°
2026-04-20 23:35 32.90624 -117.18953 9237 ft 264 kts 111°
2026-04-20 23:35 32.89486 -117.14959 8583 ft 244 kts 111°
2026-04-20 23:35 32.88945 -117.13074 8103 ft 239 kts 111°
2026-04-20 23:36 32.88406 -117.11221 7560 ft 237 kts 111°
2026-04-20 23:36 32.87862 -117.09369 7018 ft 235 kts 111°
2026-04-20 23:36 32.87326 -117.07549 6482 ft 233 kts 111°
2026-04-20 23:36 32.86792 -117.05751 5988 ft 232 kts 111°
2026-04-20 23:37 32.86247 -117.03944 5936 ft 231 kts 111°
2026-04-20 23:37 32.85698 -117.02134 5929 ft 232 kts 111°
2026-04-20 23:37 32.85154 -117.00343 5929 ft 232 kts 111°
2026-04-20 23:37 32.84607 -116.98534 5921 ft 232 kts 110°
2026-04-20 23:38 32.84058 -116.96721 5943 ft 232 kts 111°
2026-04-20 23:38 32.83507 -116.94913 5924 ft 229 kts 111°
2026-04-20 23:38 32.82958 -116.93124 5286 ft 232 kts 110°
2026-04-20 23:38 32.82413 -116.91361 4985 ft 229 kts 110°
2026-04-20 23:39 32.81853 -116.89558 4958 ft 232 kts 110°
2026-04-20 23:39 32.81289 -116.87750 4942 ft 232 kts 110°
2026-04-20 23:39 32.80631 -116.86034 4927 ft 232 kts 127°
2026-04-20 23:39 32.79375 -116.84859 4955 ft 232 kts 159°
2026-04-20 23:40 32.77770 -116.84647 4947 ft 231 kts 190°
2026-04-20 23:40 32.76260 -116.85182 4926 ft 221 kts 200°
2026-04-20 23:40 32.74849 -116.85805 4925 ft 211 kts 200°
2026-04-20 23:40 32.73468 -116.86365 4937 ft 208 kts 198°
2026-04-20 23:41 32.72089 -116.86871 4933 ft 207 kts 197°
2026-04-20 23:41 32.70704 -116.87348 4930 ft 207 kts 196°
2026-04-20 23:41 32.69359 -116.87924 4927 ft 207 kts 210°
2026-04-20 23:41 32.68308 -116.89062 4591 ft 210 kts 239°
2026-04-20 23:42 32.67773 -116.90668 4061 ft 205 kts 255°
2026-04-20 23:42 32.67428 -116.92218 3959 ft 187 kts 255°
2026-04-20 23:42 32.67210 -116.93682 3901 ft 175 kts 268°
2026-04-20 23:42 32.67378 -116.95094 3557 ft 174 kts 287°
2026-04-20 23:43 32.67775 -116.96461 3532 ft 174 kts 290°
2026-04-20 23:43 32.68165 -116.97806 3397 ft 173 kts 288°
2026-04-20 23:43 32.68526 -116.99168 2737 ft 174 kts 287°
2026-04-20 23:43 32.68864 -117.00513 2605 ft 167 kts 286°
2026-04-20 23:44 32.69186 -117.01826 2561 ft 164 kts 286°
2026-04-20 23:44 32.69516 -117.03173 2628 ft 172 kts 286°
2026-04-20 23:44 32.69846 -117.04519 2451 ft 171 kts 286°
2026-04-20 23:44 32.70174 -117.05857 1912 ft 163 kts 286°
2026-04-20 23:45 32.70480 -117.07099 1912 ft 155 kts 286°
2026-04-20 23:45 32.70778 -117.08334 1879 ft 160 kts 285°
2026-04-20 23:45 32.71073 -117.09621 1642 ft 161 kts 284°
2026-04-20 23:45 32.71355 -117.10908 1410 ft 163 kts 284°
2026-04-20 23:46 32.71684 -117.12178 1272 ft 155 kts 287°
2026-04-20 23:46 32.72005 -117.13385 970 ft 156 kts 286°
2026-04-20 23:46 32.72306 -117.14616 729 ft 154 kts 285°
2026-04-20 23:46 32.72597 -117.15827 478 ft 152 kts 285°
2026-04-20 23:47 32.72892 -117.17050 252 ft 153 kts 286°
2026-04-20 23:47 32.73183 -117.18250 33 ft 149 kts 285°
2026-04-20 23:47 32.73429 -117.19263 29 ft 95 kts 285°
2026-04-20 23:47 32.73550 -117.19769 27 ft 39 kts 287°
2026-04-20 23:48 32.73611 -117.20013 26 ft 27 kts 285°
2026-04-20 23:48 32.73634 -117.20172 26 ft 10 kts 251°
2026-04-20 23:48 32.73572 -117.20204 26 ft 10 kts 158°
2026-04-20 23:48 32.73533 -117.20129 26 ft 11 kts 105°
2026-04-20 23:49 32.73511 -117.20032 26 ft 12 kts 105°
2026-04-20 23:49 32.73484 -117.19922 27 ft 15 kts 106°
2026-04-20 23:49 32.73447 -117.19771 27 ft 21 kts 107°
2026-04-20 23:49 32.73403 -117.19592 28 ft 22 kts 106°
2026-04-20 23:50 32.73363 -117.19423 28 ft 21 kts 106°
2026-04-20 23:50 32.73327 -117.19275 28 ft 13 kts 105°
2026-04-20 23:50 32.73317 -117.19192 28 ft 9 kts 66°
2026-04-20 23:50 32.73376 -117.19141 28 ft 12 kts 30°
2026-04-20 23:51 32.73459 -117.19086 29 ft 9 kts 29°
2026-04-20 23:51 32.73479 -117.19030 29 ft 9 kts 94°
2026-04-20 23:51 32.73455 -117.18909 29 ft 18 kts 106°
2026-04-20 23:51 32.73418 -117.18758 29 ft 19 kts 105°
2026-04-20 23:52 32.73380 -117.18600 29 ft 20 kts 107°
2026-04-20 23:52 32.73349 -117.18471 29 ft 8 kts 105°
2026-04-20 23:52 32.73369 -117.18412 29 ft 10 kts 29°
2026-04-20 23:52 32.73450 -117.18404 30 ft 12 kts 335°
2026-04-20 23:53 32.73531 -117.18468 30 ft 12 kts 324°
2026-04-20 23:53 32.73609 -117.18499 30 ft 11 kts 355°
2026-04-20 23:53 32.73656 -117.18504 30 ft 3 kts 354°
2026-04-20 23:53 32.73660 -117.18504 30 ft 0 kts 354°